Current weather by "City, St" or "zip code"  
 

Current Conditions: CHARLOTTE

Clear


48.2 F

Last Updated on May 26 2024, 02:55 AM EDT
Humidity: 93%
Wind Speed: E 1.1 mph
Barometer 29.90 in
Dewpoint: 46.4 F
Visibility: 10.00 mi
Precip: --
Heat Index: NA
Wind Chill: NA
Current conditions at:

CHARLOTTE (KFPK)

Lat: 42.57 Lon: 84.81

active severe weather and emergency alerts image image weather storm and storm spotter reports image weather observation monitoring service image
Active
Alerts
Storm Reports Obs
Monitoring

Sign-up For Email & Text Message Weather Alert Notification Services



Advertise Here

Observation History for CHARLOTTE


Time Wind
(mph)
Vis
(mi)
Weather Precip (in) Temperature (F) Relative
Humidity
Wind
Chill
(F)
Heat
Index
(F)
Pressure
Air Dwpt altimeter
(in)
sea level
(mb)
Rmks
02:55 AM EDT E 1.1 10.00 Clear -- 48.2 46.4 93% NA NA 29.90 1012.5
02:35 AM EDT S 1.1 10.00 Clear -- 50.0 50.0 100% NA NA 29.90 1012.5
01:55 AM EDT 1.1 10.00 Clear -- 48.2 48.2 100% NA NA 29.91 1012.9
01:35 AM EDT 1.1 10.00 Clear -- 51.8 48.2 87% NA NA 29.91 1012.9
12:55 AM EDT 2.2 10.00 Clear -- 48.2 46.4 93% NA NA 29.91 1012.9
12:35 AM EDT 1.1 10.00 Clear -- 50.0 48.2 94% NA NA 29.90 1012.5
12:15 AM EDT 1.1 10.00 Clear -- 51.8 50.0 94% NA NA 29.91 1012.9
11:55 PM EDT 1.1 10.00 Clear -- 53.6 50.0 88% NA NA 29.91 1012.9
10:55 PM EDT 0.0 10.00 Clear -- 57.2 50.0 77% NA NA 29.92 1013.2
10:35 PM EDT SW 1.1 10.00 Clear -- 55.4 50.0 82% NA NA 29.91 1012.9
10:15 PM EDT 3.4 10.00 Clear -- 57.2 50.0 77% NA NA 29.90 1012.5
09:55 PM EDT 3.4 10.00 Clear -- 60.8 48.2 63% NA NA 29.89 1012.2
09:36 PM EDT W 3.4 10.00 Clear -- 62.6 48.2 59% NA NA 29.89 1012.2
09:15 PM EDT W 3.4 10.00 Clear -- 64.4 48.2 56% NA NA 29.88 1011.9
07:55 PM EDT 6.9 10.00 Clear -- 69.8 48.2 46% NA NA 29.87 1011.5
07:15 PM EDT W 9.2 10.00 Clear -- 71.6 48.2 43% NA 70.5 29.85 1010.8
06:55 PM EDT 9.2 10.00 Clear -- 71.6 48.2 43% NA 70.5 29.85 1010.8
06:35 PM EDT 6.9 10.00 Clear -- 73.4 48.2 41% NA 72.3 29.84 1010.5
05:55 PM EDT 3.4 10.00 Clear -- 73.4 46.4 38% NA 72.3 29.84 1010.5
05:35 PM EDT 11.4 10.00 Clear -- 73.4 46.4 38% NA 72.3 29.84 1010.5
05:15 PM EDT NW 5.8 10.00 NULL -- 73.4 46.4 38% NA 72.3 29.84 1010.5
04:55 PM EDT NW 8.1 10.00 Clear -- 73.4 48.2 41% NA 72.3 29.84 1010.5
04:35 PM EDT 9.2 10.00 Clear -- 73.4 46.4 38% NA 72.3 29.85 1010.8
04:15 PM EDT 8.1 10.00 Clear -- 73.4 48.2 41% NA 72.3 29.84 1010.5

Regional Weather Observation


CHARLOTTE (KFPK)

Clear
48.2 F

LANSING (KLAN)

Clear
52.0 F

GRAND RAPIDS (KGRR)

Clear
52.0 F

BATTLE CREEK (KBTL)

Clear
55.0 F

MARSHALL (KRMY)

Clear
48.9 F

MASON (KTEW)

Clear
52.7 F

Advertise Here


Advertise Here